This is the latest recevied weather packets stored in our database for station/object KD9ZDW. If no packets are shown the sender has not sent any weather packets the latest 10 day(s).
| Time | Temp. | Humidity | Pressure | Rain* | Wind** | Luminosity | Snow |
|---|---|---|---|---|---|---|---|
| 1777512314 | 9.44° C | 77% | 1015.4 hPa | 0 mm | - | 0 W/m² | - |
| 1777512009 | 9.44° C | 77% | 1015.3 hPa | 0 mm | - | 0 W/m² | - |
| 1777511708 | 9.44° C | 77% | 1015.5 hPa | 0 mm | - | 0 W/m² | - |
| 1777511405 | 9.44° C | 76% | 1015 hPa | 0 mm | - | 0 W/m² | - |
| 1777511101 | 10° C | 77% | 1015.3 hPa | 0 mm | - | 0 W/m² | - |
| 1777510797 | 10° C | 76% | 1015.2 hPa | 0 mm | - | 0 W/m² | - |
| 1777510495 | 10° C | 76% | 1014.9 hPa | 0 mm | - | 0 W/m² | - |
| 1777510190 | 10° C | 76% | 1014.9 hPa | 0 mm | - | 0 W/m² | - |
| 1777509888 | 10° C | 76% | 1014.7 hPa | 0 mm | - | 0 W/m² | - |
| 1777509588 | 10° C | 76% | 1014.8 hPa | 0 mm | - | 1 W/m² | - |
| 1777509285 | 10.56° C | 75% | 1014.9 hPa | 0 mm | - | 2 W/m² | - |
| 1777508982 | 10.56° C | 75% | 1014.7 hPa | 0 mm | - | 3 W/m² | - |
| 1777508679 | 10.56° C | 75% | 1014.4 hPa | 0 mm | - | 5 W/m² | - |
| 1777508377 | 10.56° C | 74% | 1014.7 hPa | 0 mm | - | 7 W/m² | - |
| 1777508073 | 10.56° C | 74% | 1014.7 hPa | 0 mm | - | 9 W/m² | - |
| 1777507770 | 11.11° C | 73% | 1014.6 hPa | 0 mm | - | 13 W/m² | - |
| 1777507467 | 11.11° C | 72% | 1014.7 hPa | 0 mm | - | 16 W/m² | - |
| 1777507164 | 11.11° C | 72% | 1014.5 hPa | 0 mm | - | 19 W/m² | - |
| 1777506862 | 11.11° C | 72% | 1014.4 hPa | 0 mm | - | 25 W/m² | - |
| 1777506559 | 11.11° C | 72% | 1014.3 hPa | 0 mm | - | 30 W/m² | - |
| 1777506254 | 11.67° C | 72% | 1014.3 hPa | 0 mm | - | 32 W/m² | - |
| 1777505951 | 11.67° C | 71% | 1014 hPa | 0 mm | - | 32 W/m² | - |
| 1777505647 | 11.67° C | 71% | 1014.3 hPa | 0 mm | - | 40 W/m² | - |
| 1777505344 | 11.67° C | 70% | 1014.2 hPa | 0 mm | - | 41 W/m² | - |
| 1777505040 | 11.67° C | 70% | 1014 hPa | 0 mm | - | 45 W/m² | - |
* Rain latest hour (hover to see other rain measurements)
** Current wind speed in m/s (hover to see current wind gust speed)